{"data":{"norad_id":54851,"epoch":"2026-09-20T22:21:57.565728Z","epoch_age_seconds":55422,"freshness":"FRESH","line1":"1 54851U 22177AH  26263.93191627 -.00002898  00000+0 -95859-4 0  9997","line2":"2 54851  43.0042  98.6829 0001460 290.0182  70.0512 15.27564537206955","mean_motion":15.27564537,"eccentricity":0.000146,"inclination_deg":43.0042,"raan_deg":98.6829,"arg_perigee_deg":290.0182,"mean_anomaly_deg":70.0512,"bstar":-9.5859e-5,"rev_number":20695,"period_min":94.267702942884,"perigee_km":482.09365828488,"apogee_km":484.09713814516,"semimajor_km":6861.232398215,"source":"CELESTRAK","updated_at":"2026-09-21T09:00:33.138344Z"}}